Starlink 5774

operational
NORAD ID: 56029 Int'l Des: 2023-042 Owner: SPXS Country: US Constellation: starlink
LEOCIRCULAR

About Starlink 5774

Description loading...

Live Position

Loading 3D Globe...

Upcoming Passes

Altitude History

Altitude vs Time

uPlot chart will show altitude changes over time

Two-Line Element Set

1 56029U 23042AV 25352.40905228 -.00000112 00000-0 67654-5 0 9998
2 56029 43.0031 124.7515 0001371 269.4605 90.6081 15.02534566150832
Epoch: Dec 18, 2025 • Age: 16 hours

Current Status

Altitude 563.2 km
Velocity 7.59 km/s
Sub-Earth Point 43.04°N, 85.65°E
Launch Date Mar 24, 2023
Age 2.7 years
Type internet

Technical Details

Classification Payload
Mass 305.00 kg
Dry Mass 290.00 kg
Total Mass 305.00 kg
Length 0.20 m
Diameter 2.80 m
Span 9.00 m
Shape Box + pan
Manufacturer SPXS
Bus Type Starlink
Phase Status In Orbit
Owner/State SPXS/US

Large Constellations

Loading constellations...